GSAT0103 (GALILEO-FM3)

Last updated on Aug. 21, 2019, 4:08 a.m. UTC

1 38857U 12055A   19231.90361986  .00000015  00000-0  00000+0 0  9997
2 38857  54.9396 170.1152 0004006 271.5020  88.4364  1.70473911 42656
UTC
Height (km)
Latitude
Longitude
Inclination
Orbital Period
UTC large
Height (km)
Speed (km/s)
/
Latitude / Longitude
Inclination (degrees)
Orbital Period (minutes)
Azimuth
Elevation
Range (km)
Doppler Factor
iOS Compass Heading
iOS Angle

Next 30 passes for location: Hong Kong

Rise time Rise Azimuth (degrees) Set time Set Azimuth (degrees) Duration Max altitude (degrees)

No matching passes for this satellites